Terminal Aerodrome Forecast
Issued by NWS Des Moines, IA

Home | Current Version | Previous Version | Text Only | Print | Product List | Glossary On
Versions: 1 2 3 4 5 6 7 8 9 10 11 12 13 14 15 16 17 18 19 20 21 22 23 24 25 26 27 28 29 30
000
FTUS43 KDMX 252324
TAFDSM
TAF
KDSM 252324Z 2600/2624 14006KT P6SM SCT030 SCT150
     FM261000 VRB04KT 5SM BR BKN030 OVC100
     FM261200 06009KT P6SM SCT025 OVC100
     FM262000 12006KT P6SM SCT100=

USA.gov is the U.S. government's official web portal to all federal, state and local government web resources and services.